FRS72 EDWR-EDWG

Flight info

Callsign FRS72
Flight time 0h 32m
Altitude 2500
Route EDWR DCT EDWG
Aircraft PA24/L-SGY/C

Departure

Time 2026-04-12 09:08
Airport Borkum Airport (EDWR)

Arrival

Time 2026-04-12 09:40
Airport Wangerooge Airport (EDWG)
Time Latitude Longitude Altitude Speed Heading
2026-04-12 08:50 53.59791 6.70370 6 ft 0 kts 233°
2026-04-12 08:51 53.59791 6.70371 6 ft 0 kts 233°
2026-04-12 08:51 53.59791 6.70370 6 ft 0 kts 233°
2026-04-12 08:53 53.59791 6.70371 6 ft 0 kts 233°
2026-04-12 08:57 53.59790 6.70368 6 ft 0 kts 233°
2026-04-12 08:58 53.59788 6.70365 6 ft 2 kts 232°
2026-04-12 08:58 53.59787 6.70363 6 ft 0 kts 231°
2026-04-12 09:03 53.59773 6.70360 5 ft 3 kts 148°
2026-04-12 09:03 53.59746 6.70394 3 ft 7 kts 144°
2026-04-12 09:03 53.59729 6.70474 4 ft 14 kts 70°
2026-04-12 09:04 53.59761 6.70622 6 ft 13 kts 74°
2026-04-12 09:04 53.59742 6.70732 4 ft 0 kts 128°
2026-04-12 09:05 53.59718 6.70781 4 ft 6 kts 130°
2026-04-12 09:05 53.59666 6.70884 6 ft 7 kts 130°
2026-04-12 09:05 53.59657 6.70954 6 ft 5 kts 37°
2026-04-12 09:05 53.59658 6.70955 6 ft 0 kts 41°
2026-04-12 09:06 53.59690 6.71000 5 ft 9 kts 47°
2026-04-12 09:07 53.59678 6.71082 2 ft 0 kts 127°
2026-04-12 09:07 53.59650 6.71143 1 ft 33 kts 128°
2026-04-12 09:08 53.59357 6.71762 93 ft 86 kts 140°
2026-04-12 09:08 53.58932 6.72510 432 ft 85 kts 147°
2026-04-12 09:08 53.58502 6.73229 678 ft 90 kts 142°
2026-04-12 09:08 53.58112 6.74109 975 ft 97 kts 135°
2026-04-12 09:09 53.57792 6.75151 1191 ft 106 kts 114°
2026-04-12 09:09 53.57652 6.76404 1527 ft 110 kts 113°
2026-04-12 09:09 53.57451 6.77660 1820 ft 113 kts 116°
2026-04-12 09:09 53.57247 6.78975 1971 ft 123 kts 108°
2026-04-12 09:10 53.57192 6.80426 2184 ft 124 kts 101°
2026-04-12 09:10 53.57199 6.81917 2298 ft 131 kts 91°
2026-04-12 09:10 53.57459 6.83421 2377 ft 139 kts 71°
2026-04-12 09:10 53.57909 6.84926 2427 ft 145 kts 66°
2026-04-12 09:11 53.58381 6.86432 2486 ft 149 kts 63°
2026-04-12 09:11 53.58928 6.87944 2500 ft 152 kts 60°
2026-04-12 09:11 53.59498 6.89441 2457 ft 153 kts 59°
2026-04-12 09:11 53.60056 6.90861 2612 ft 136 kts 58°
2026-04-12 09:12 53.60589 6.92158 2633 ft 133 kts 57°
2026-04-12 09:12 53.61133 6.93435 2620 ft 136 kts 54°
2026-04-12 09:12 53.61727 6.94663 2626 ft 135 kts 51°
2026-04-12 09:12 53.62334 6.95879 2598 ft 135 kts 56°
2026-04-12 09:13 53.62804 6.97217 2618 ft 131 kts 65°
2026-04-12 09:13 53.63217 6.98607 2590 ft 134 kts 68°
2026-04-12 09:13 53.63606 7.00011 2615 ft 130 kts 68°
2026-04-12 09:13 53.64011 7.01388 2600 ft 132 kts 66°
2026-04-12 09:14 53.64401 7.02780 2628 ft 130 kts 71°
2026-04-12 09:14 53.64731 7.04204 2584 ft 132 kts 72°
2026-04-12 09:14 53.65096 7.05619 2575 ft 131 kts 70°
2026-04-12 09:14 53.65453 7.07036 2548 ft 132 kts 72°
2026-04-12 09:15 53.65754 7.08493 2524 ft 132 kts 75°
2026-04-12 09:15 53.66077 7.09936 2487 ft 131 kts 73°
2026-04-12 09:15 53.66394 7.11342 2470 ft 130 kts 74°
2026-04-12 09:15 53.66700 7.12768 2451 ft 128 kts 75°
2026-04-12 09:16 53.67012 7.14176 2403 ft 129 kts 73°
2026-04-12 09:16 53.67318 7.15573 2439 ft 125 kts 74°
2026-04-12 09:16 53.67607 7.16971 2390 ft 127 kts 76°
2026-04-12 09:16 53.67886 7.18364 2416 ft 124 kts 78°
2026-04-12 09:17 53.68087 7.19788 2395 ft 125 kts 85°
2026-04-12 09:17 53.68179 7.21220 2406 ft 122 kts 91°
2026-04-12 09:17 53.68293 7.22650 2384 ft 124 kts 86°
2026-04-12 09:17 53.68483 7.24073 2397 ft 124 kts 81°
2026-04-12 09:18 53.68739 7.25478 2360 ft 127 kts 77°
2026-04-12 09:18 53.69027 7.26875 2362 ft 126 kts 73°
2026-04-12 09:18 53.69357 7.28234 2355 ft 125 kts 74°
2026-04-12 09:18 53.69630 7.29606 2392 ft 123 kts 75°
2026-04-12 09:19 53.69904 7.30965 2378 ft 121 kts 77°
2026-04-12 09:19 53.70119 7.32338 2415 ft 121 kts 81°
2026-04-12 09:19 53.70291 7.33726 2445 ft 121 kts 78°
2026-04-12 09:20 53.70729 7.36467 2497 ft 123 kts 84°
2026-04-12 09:20 53.70876 7.37891 2565 ft 120 kts 84°
2026-04-12 09:20 53.71119 7.40671 2579 ft 119 kts 85°
2026-04-12 09:21 53.71371 7.42039 2505 ft 126 kts 66°
2026-04-12 09:21 53.71813 7.43282 2548 ft 122 kts 52°
2026-04-12 09:21 53.72454 7.44289 2460 ft 126 kts 37°
2026-04-12 09:21 53.73201 7.44963 2448 ft 121 kts 17°
2026-04-12 09:22 53.73986 7.45441 2449 ft 118 kts 17°
2026-04-12 09:22 53.74720 7.46104 2383 ft 122 kts 27°
2026-04-12 09:22 53.75443 7.46830 2375 ft 120 kts 30°
2026-04-12 09:22 53.76090 7.47740 2388 ft 121 kts 45°
2026-04-12 09:23 53.76552 7.48909 2452 ft 121 kts 65°
2026-04-12 09:23 53.76905 7.50193 2536 ft 119 kts 70°
2026-04-12 09:23 53.77208 7.51493 2562 ft 119 kts 71°
2026-04-12 09:23 53.77517 7.52785 2600 ft 118 kts 73°
2026-04-12 09:24 53.77795 7.54102 2629 ft 119 kts 75°
2026-04-12 09:24 53.78039 7.55428 2640 ft 118 kts 77°
2026-04-12 09:24 53.78291 7.56759 2628 ft 119 kts 76°
2026-04-12 09:24 53.78545 7.58098 2622 ft 120 kts 76°
2026-04-12 09:25 53.78861 7.59411 2611 ft 120 kts 69°
2026-04-12 09:25 53.79179 7.60707 2604 ft 119 kts 72°
2026-04-12 09:25 53.79424 7.62037 2586 ft 118 kts 79°
2026-04-12 09:25 53.79622 7.63391 2580 ft 119 kts 83°
2026-04-12 09:26 53.79745 7.64769 2564 ft 117 kts 88°
2026-04-12 09:26 53.79870 7.66129 2545 ft 117 kts 85°
2026-04-12 09:26 53.80002 7.67469 2539 ft 117 kts 86°
2026-04-12 09:26 53.80127 7.68833 2528 ft 117 kts 85°
2026-04-12 09:27 53.80248 7.70194 2532 ft 116 kts 89°
2026-04-12 09:27 53.80307 7.71544 2522 ft 115 kts 100°
2026-04-12 09:27 53.80117 7.72836 2521 ft 110 kts 114°
2026-04-12 09:27 53.80027 7.74126 2457 ft 115 kts 99°
2026-04-12 09:28 53.80102 7.75470 2443 ft 115 kts 85°
2026-04-12 09:28 53.80275 7.76812 2451 ft 117 kts 83°
2026-04-12 09:28 53.80443 7.78145 2440 ft 116 kts 84°
2026-04-12 09:28 53.80621 7.79470 2433 ft 115 kts 81°
2026-04-12 09:29 53.80797 7.80802 2415 ft 116 kts 84°
2026-04-12 09:29 53.80967 7.82143 2390 ft 117 kts 84°
2026-04-12 09:29 53.81123 7.83497 2331 ft 117 kts 86°
2026-04-12 09:29 53.81204 7.84850 2257 ft 116 kts 93°
2026-04-12 09:30 53.81173 7.86203 2184 ft 112 kts 104°
2026-04-12 09:30 53.81061 7.87508 2150 ft 111 kts 104°
2026-04-12 09:30 53.80939 7.88801 2063 ft 113 kts 105°
2026-04-12 09:30 53.80804 7.90083 1999 ft 109 kts 108°
2026-04-12 09:31 53.80608 7.91347 1865 ft 110 kts 112°
2026-04-12 09:31 53.80405 7.92579 1769 ft 109 kts 112°
2026-04-12 09:31 53.80195 7.93822 1677 ft 108 kts 112°
2026-04-12 09:31 53.79953 7.95031 1546 ft 110 kts 122°
2026-04-12 09:32 53.79556 7.96090 1460 ft 104 kts 130°
2026-04-12 09:32 53.79230 7.97185 1352 ft 104 kts 118°
2026-04-12 09:32 53.79013 7.98367 1316 ft 104 kts 106°
2026-04-12 09:32 53.78864 7.99561 1327 ft 104 kts 110°
2026-04-12 09:33 53.78682 8.00731 1351 ft 102 kts 113°
2026-04-12 09:33 53.78400 8.01836 1362 ft 102 kts 127°
2026-04-12 09:33 53.77961 8.02734 1405 ft 98 kts 144°
2026-04-12 09:33 53.77432 8.03430 1443 ft 95 kts 157°
2026-04-12 09:34 53.76833 8.03884 1465 ft 93 kts 167°
2026-04-12 09:34 53.76220 8.04190 1465 ft 92 kts 172°
2026-04-12 09:34 53.75594 8.04401 1459 ft 91 kts 181°
2026-04-12 09:34 53.74982 8.04340 1438 ft 89 kts 199°
2026-04-12 09:35 53.74398 8.03986 1393 ft 85 kts 207°
2026-04-12 09:35 53.73925 8.03417 1338 ft 86 kts 227°
2026-04-12 09:35 53.73567 8.02614 1301 ft 86 kts 236°
2026-04-12 09:35 53.73261 8.01731 1245 ft 88 kts 237°
2026-04-12 09:36 53.73013 8.00785 1164 ft 89 kts 246°
2026-04-12 09:36 53.72828 7.99790 1075 ft 88 kts 253°
2026-04-12 09:36 53.72745 7.98747 958 ft 90 kts 263°
2026-04-12 09:36 53.72722 7.97713 918 ft 88 kts 263°
2026-04-12 09:37 53.72745 7.96667 844 ft 87 kts 268°
2026-04-12 09:37 53.72805 7.95664 801 ft 87 kts 271°
2026-04-12 09:37 53.72897 7.94665 832 ft 87 kts 273°
2026-04-12 09:37 53.73034 7.93683 886 ft 86 kts 278°
2026-04-12 09:38 53.73425 7.92887 889 ft 95 kts 323°
2026-04-12 09:38 53.74083 7.92683 913 ft 96 kts
2026-04-12 09:38 53.74504 7.92922 894 ft 97 kts 19°
2026-04-12 09:38 53.75120 7.93389 844 ft 96 kts 21°
2026-04-12 09:39 53.75732 7.93888 753 ft 99 kts 22°
2026-04-12 09:39 53.76346 7.94384 678 ft 98 kts 25°
2026-04-12 09:39 53.76953 7.94890 657 ft 96 kts 20°
2026-04-12 09:39 53.77594 7.95042 633 ft 95 kts 345°
2026-04-12 09:40 53.78092 7.94420 441 ft 84 kts 291°
2026-04-12 09:40 53.78196 7.93541 214 ft 72 kts 266°
2026-04-12 09:40 53.78221 7.92732 49 ft 66 kts 266°
2026-04-12 09:40 53.78249 7.92094 1 ft 41 kts 270°
2026-04-12 09:41 53.78263 7.91669 1 ft 32 kts 276°
2026-04-12 09:41 53.78276 7.91399 7 ft 15 kts 273°
2026-04-12 09:41 53.78301 7.91320 8 ft 6 kts 359°
2026-04-12 09:41 53.78308 7.91320 8 ft 0 kts
2026-04-12 09:42 53.78340 7.91288 9 ft 10 kts 285°
2026-04-12 09:42 53.78362 7.91177 11 ft 9 kts 309°
2026-04-12 09:42 53.78434 7.91123 11 ft 13 kts 339°
2026-04-12 09:43 53.78599 7.91073 10 ft 10 kts 26°
2026-04-12 09:43 53.78626 7.91097 10 ft 2 kts 15°
2026-04-12 09:43 53.78655 7.91079 10 ft 6 kts 335°
2026-04-12 09:44 53.78683 7.91060 10 ft 7 kts 360°
2026-04-12 09:44 53.78693 7.91091 10 ft 5 kts 147°
2026-04-12 09:44 53.78685 7.91086 10 ft 0 kts 259°
2026-04-12 09:44 53.78684 7.91081 10 ft 0 kts 252°